Flag for Germany Weather past 2 weeks in Pforzheim, Baden-Württemberg, Germany

Now
36 °F

Light rain. Partly cloudy.


Feels Like: 32 °F
Forecast: 30 / 36 °F
Wind: 5 mph from West

Location: Stuttgart-Echterdingen

Current Time: Dec 26, 2014 at 3:30:50 AM

Latest Report: Dec 26, 2014 at 2:50 AM


Visibility: N/A

Pressure: 30.36 "Hg

Humidity: 93%

Dew point: 34 °F

Location of PforzheimLocation

Historic Weather in Pforzheim — Graph

°F

Pforzheim temperature yesterday

Maximum temperature yesterday: 45 °F (at 12:20 AM)
Minimum temperature yesterday: 37 °F (at 8:20 PM)
Average temperature yesterday: 41 °F

Past Weeks' High & Low Weather Summary

 TemperatureHumidityPressure
High54 °F (Dec 13, 3:20 PM)100% (Dec 14, 2:50 PM)30.51 "Hg (Dec 14, 2:50 PM)
Low28 °F (Dec 24, 3:20 AM)38% (Dec 23, 2:20 PM)29.74 "Hg (Dec 12, 4:50 PM)
Average44 °F80%30.09 "Hg
* Reported Dec 11 2:20 AM — Dec 26 2:20 AM, Pforzheim, Weather by CustomWeather, © 2014

Note: Actual official high and low records may vary slightly from our data, if they occured in-between our weather recording intervals... More about our weather records

Advertising

Pforzheim weather history for previous 24 hours

 ConditionsComfort  
Time TempWeatherWind HumidityBarometerVisibility
2:20 AM
Dec 26
36 °FLight rain. Partly cloudy.8 mph93%30.36 "HgN/A
1:50 AM37 °FSprinkles. Partly cloudy.8 mph87%30.33 "HgN/A
1:20 AM37 °FPartly cloudy.8 mph87%30.33 "HgN/A
12:50 AM37 °FSprinkles. Partly cloudy.8 mph87%30.33 "HgN/A
12:20 AM37 °FSprinkles. Partly cloudy.7 mph87%30.33 "HgN/A
11:20 PM
Dec 25
37 °FPartly cloudy.8 mph81%30.33 "HgN/A
10:50 PM37 °FLight rain. Partly cloudy.5 mph81%30.33 "HgN/A
10:20 PM37 °FPartly cloudy.5 mph81%30.33 "HgN/A
9:50 PM37 °FLight rain. Partly cloudy.7 mph81%30.33 "HgN/A
9:20 PM37 °FLight rain. Partly cloudy.9 mph81%30.33 "HgN/A
8:50 PM39 °FClear.9 mph75%30.33 "Hg10 mi
8:20 PM37 °FPassing clouds.9 mph81%30.33 "HgN/A
7:50 PM39 °FPassing clouds.9 mph75%30.33 "HgN/A
7:20 PM39 °FPassing clouds.13 mph75%30.33 "HgN/A
6:50 PM39 °FPassing clouds.12 mph70%30.33 "HgN/A
6:20 PM39 °FPassing clouds.9 mph75%30.30 "HgN/A
5:50 PM39 °FPassing clouds.13 mph70%30.30 "HgN/A
5:20 PM39 °FPassing clouds.15 mph70%30.30 "HgN/A
4:20 PM41 °FPartly sunny.13 mph70%30.30 "HgN/A
3:50 PM41 °FPartly sunny.10 mph66%30.30 "HgN/A
3:20 PM41 °FPartly sunny.10 mph66%30.30 "HgN/A
2:50 PM41 °FPartly sunny.12 mph70%30.30 "HgN/A
2:20 PM41 °FScattered clouds.10 mph66%30.27 "HgN/A
1:50 PM41 °FBroken clouds.14 mph70%30.27 "HgN/A
1:20 PM41 °FBroken clouds.15 mph70%30.27 "HgN/A
12:50 PM41 °FBroken clouds.16 mph70%30.30 "HgN/A
12:20 PM39 °FPartly sunny.14 mph75%30.30 "HgN/A
11:50 AM39 °FPartly sunny.13 mph75%30.30 "HgN/A
11:20 AM39 °FPartly sunny.13 mph75%30.30 "HgN/A
10:50 AM39 °FPartly sunny.12 mph75%30.30 "HgN/A
10:20 AM39 °FBroken clouds.6 mph87%30.30 "HgN/A
9:50 AM39 °FBroken clouds.7 mph81%30.27 "HgN/A
9:20 AM39 °FBroken clouds.9 mph81%30.27 "HgN/A
8:50 AM39 °FBroken clouds.7 mph81%30.27 "HgN/A
8:20 AM39 °FPartly sunny.8 mph81%30.27 "HgN/A
7:50 AM39 °FPassing clouds.9 mph81%30.24 "HgN/A
7:20 AM39 °FPassing clouds.9 mph81%30.24 "HgN/A
6:50 AM39 °FPassing clouds.10 mph81%30.24 "HgN/A
6:20 AM41 °FLight rain. Partly cloudy.18 mph81%30.24 "HgN/A
5:50 AM43 °FRain. Partly cloudy.18 mph87%30.21 "HgN/A
5:20 AM45 °FLight rain. Partly cloudy.9 mph87%30.18 "HgN/A
4:50 AM45 °FLight rain. Partly cloudy.8 mph87%30.18 "HgN/A
4:20 AM45 °FLight rain. Partly cloudy.9 mph93%30.18 "HgN/A
3:50 AM45 °FLight rain. Partly cloudy.9 mph87%30.18 "HgN/A
3:20 AM45 °FLight rain. Partly cloudy.10 mph93%30.18 "HgN/A
Weather by CustomWeather, © 2014

See weather overviewHow to use our weather pages